Lincoln, NE

4:49 PM CST on January 22, 2018 (GMT -0600)
Lincoln Municipal

Weather History for KLNK - May, 2013

Change the Weather History Date:

Tuesday, May 14, 2013

  Actual Average Record
Temperature  
Mean Temperature 78 °F 62 °F  
Max Temperature 100 °F 74 °F 100 °F (2013)
Min Temperature 55 °F 50 °F 32 °F (1907)
Degree Days  
Heating Degree Days 0 5  
Month to date heating degree days 166 95  
Since 1 July heating degree days 6287 5988  
Cooling Degree Days 13 2  
Month to date cooling degree days 14 17  
Year to date cooling degree days 18 31  
Growing Degree Days 28 (Base 50)    
Moisture  
Dew Point 51 °F    
Average Humidity 54    
Maximum Humidity 93    
Minimum Humidity 15    
Precipitation  
Precipitation 0.00 in 0.14 in 2.63 in (1909)
Month to date precipitation 1.37 1.94  
Year to date precipitation 8.78 7.99  
Snow  
Snow 0.00 in 0.00 in - ()
Month to date snowfall 2.7 0.1  
Since 1 July snowfall 27.5 26.0  
Snow Depth 0.00 in    
Sea Level Pressure  
Sea Level Pressure 29.72 in    
Wind  
Wind Speed 13 mph (SSW)    
Max Wind Speed 31 mph    
Max Gust Speed 38 mph    
Visibility 10 miles    
Events      
T = Trace of Precipitation, MM = Missing Value Source: NWS Daily Summary

Daily Weather History Graph

Daily Weather History Graph

Search for Another Location

Airport or City:

Trip Planner

Search our weather history database for the weather conditions in past years. The results will help you decide how hot, cold, wet, or windy it might be!

Date:

Astronomy

May. 14, 2013 Rise Set
Actual Time 6:10 AM CDT 8:37 PM CDT
Civil Twilight 5:39 AM CDT 9:08 PM CDT
Nautical Twilight 5:00 AM CDT 9:46 PM CDT
Astronomical Twilight 4:17 AM CDT 10:30 PM CDT
Moon 9:51 AM CDT (5/14) No Moon Set
Length of Visible Light 15h 28m
Length of Day
14h 26m
Waxing Crescent, 19% of the Moon is Illuminated
May 14
Waxing Crescent
May 17
First Quarter
May 24
Full
May 31
Last Quarter
Jun 8
New

Hourly Weather History & Observations

Time (CDT) Temp. Heat Index Dew Point Humidity Pressure Visibility Wind Dir Wind Speed Gust Speed Precip Events Conditions
12:54 AM 66.0 °F - 54.0 °F 65% 29.84 in 10.0 mi South 8.1 mph - N/A   Clear
1:54 AM 64.0 °F - 55.0 °F 73% 29.82 in 10.0 mi SSE 3.5 mph - N/A   Clear
2:54 AM 62.1 °F - 55.0 °F 78% 29.81 in 10.0 mi SSE 3.5 mph - N/A   Clear
3:54 AM 60.1 °F - 54.0 °F 80% 29.79 in 10.0 mi SSE 4.6 mph - N/A   Clear
4:54 AM 57.0 °F - 54.0 °F 89% 29.78 in 10.0 mi SSE 6.9 mph - N/A   Clear
5:54 AM 55.0 °F - 53.1 °F 93% 29.78 in 9.0 mi SSE 5.8 mph - N/A   Clear
6:54 AM 57.0 °F - 55.0 °F 93% 29.78 in 7.0 mi SSE 5.8 mph - N/A   Clear
7:54 AM 64.0 °F - 57.9 °F 80% 29.77 in 8.0 mi South 6.9 mph - N/A   Clear
8:54 AM 72.0 °F - 57.9 °F 61% 29.75 in 10.0 mi South 8.1 mph - N/A   Clear
9:54 AM 79.0 °F - 55.0 °F 44% 29.74 in 10.0 mi SSW 9.2 mph - N/A   Clear
10:54 AM 84.0 °F 83.8 °F 59.0 °F 43% 29.73 in 10.0 mi South 11.5 mph - N/A   Clear
11:54 AM 90.0 °F 88.8 °F 57.9 °F 34% 29.72 in 10.0 mi South 11.5 mph - N/A   Clear
12:54 PM 96.1 °F - 48.9 °F 20% 29.69 in 10.0 mi SSW 17.3 mph 25.3 mph N/A   Clear
1:54 PM 99.0 °F - 42.1 °F 14% 29.65 in 10.0 mi SSW 25.3 mph 34.5 mph N/A   Clear
2:54 PM 99.0 °F - 42.1 °F 14% 29.65 in 10.0 mi SSW 23.0 mph 32.2 mph N/A   Clear
3:54 PM 98.1 °F - 44.1 °F 16% 29.65 in 10.0 mi SSW 25.3 mph 34.5 mph N/A   Clear
4:54 PM 97.0 °F - 45.0 °F 17% 29.63 in 10.0 mi SW 25.3 mph 36.8 mph N/A   Clear
5:54 PM 93.9 °F - 48.0 °F 21% 29.63 in 10.0 mi SSW 16.1 mph 27.6 mph N/A   Clear
6:54 PM 93.0 °F - 46.0 °F 20% 29.64 in 10.0 mi SSW 20.7 mph 28.8 mph N/A   Clear
7:54 PM 91.0 °F - 44.1 °F 20% 29.67 in 10.0 mi WSW 18.4 mph 32.2 mph N/A   Clear
8:54 PM 89.1 °F - 44.1 °F 21% 29.65 in 10.0 mi SSW 24.2 mph 35.7 mph N/A   Clear
9:54 PM 84.0 °F - 50.0 °F 31% 29.70 in 10.0 mi SSW 12.7 mph - N/A   Clear
10:54 PM 80.1 °F - 51.1 °F 36% 29.73 in 10.0 mi NNW 16.1 mph - N/A   Clear
11:54 PM 79.0 °F - 51.1 °F 38% 29.73 in 10.0 mi SW 8.1 mph - N/A   Clear